TimeMST,TemperatureF,Dew PointF,Humidity,Sea Level PressureIn,VisibilityMPH,Wind Direction,Wind SpeedMPH,Gust SpeedMPH,PrecipitationIn,Events,Conditions,WindDirDegrees,DateUTC
12:51 AM,61.0,36.0,39,30.01,10.0,East,5.8,-,N/A,,Mostly Cloudy,100,2012-11-18 07:51:00
1:51 AM,59.0,35.1,41,30.01,10.0,East,5.8,-,N/A,,Mostly Cloudy,90,2012-11-18 08:51:00
2:51 AM,59.0,36.0,42,30.01,10.0,ESE,4.6,-,N/A,,Mostly Cloudy,110,2012-11-18 09:51:00
3:51 AM,59.0,37.0,44,30.01,10.0,East,4.6,-,N/A,,Scattered Clouds,90,2012-11-18 10:51:00
4:51 AM,59.0,35.1,41,30.00,10.0,ESE,3.5,-,N/A,,Scattered Clouds,110,2012-11-18 11:51:00
5:51 AM,57.9,35.1,42,30.01,10.0,East,4.6,-,N/A,,Mostly Cloudy,80,2012-11-18 12:51:00
6:51 AM,57.9,36.0,44,30.03,10.0,ESE,4.6,-,N/A,,Scattered Clouds,110,2012-11-18 13:51:00
7:51 AM,59.0,36.0,42,30.04,10.0,ESE,3.5,-,N/A,,Scattered Clouds,110,2012-11-18 14:51:00
8:51 AM,64.0,37.0,37,30.05,10.0,ESE,5.8,-,N/A,,Partly Cloudy,110,2012-11-18 15:51:00
9:51 AM,69.8,37.4,31,30.09,10.0,ESE,5.8,-,N/A,,Partly Cloudy,120,2012-11-18 16:51:00
10:51 AM,73.0,36.0,26,30.06,10.0,Variable,3.5,-,N/A,,Partly Cloudy,0,2012-11-18 17:51:00
11:51 AM,75.0,37.9,26,30.05,10.0,South,4.6,-,N/A,,Partly Cloudy,190,2012-11-18 18:51:00
12:51 PM,75.0,37.9,26,30.02,10.0,Calm,Calm,-,N/A,,Partly Cloudy,0,2012-11-18 19:51:00
1:51 PM,75.9,39.9,27,30.00,10.0,Calm,Calm,-,N/A,,Scattered Clouds,0,2012-11-18 20:51:00
2:51 PM,78.1,42.1,28,29.99,10.0,Variable,4.6,-,N/A,,Mostly Cloudy,0,2012-11-18 21:51:00
3:51 PM,79.0,41.0,26,29.99,10.0,Calm,Calm,-,N/A,,Mostly Cloudy,0,2012-11-18 22:51:00
4:51 PM,77.0,41.0,28,29.99,10.0,Variable,4.6,-,N/A,,Mostly Cloudy,0,2012-11-18 23:51:00
5:51 PM,75.0,41.0,29,30.00,10.0,NNW,5.8,-,N/A,,Mostly Cloudy,340,2012-11-19 00:51:00
6:51 PM,73.9,41.0,30,30.02,10.0,NNW,6.9,-,N/A,,Mostly Cloudy,340,2012-11-19 01:51:00
7:51 PM,72.0,42.1,34,30.02,10.0,North,5.8,-,N/A,,Mostly Cloudy,350,2012-11-19 02:51:00
8:51 PM,66.9,42.1,40,30.04,10.0,Calm,Calm,-,N/A,,Mostly Cloudy,0,2012-11-19 03:51:00
9:51 PM,64.9,42.1,43,30.04,10.0,Calm,Calm,-,N/A,,Mostly Cloudy,0,2012-11-19 04:51:00
10:51 PM,63.0,44.1,50,30.06,10.0,South,3.5,-,N/A,,Mostly Cloudy,180,2012-11-19 05:51:00
11:51 PM,63.0,43.0,48,30.07,10.0,Calm,Calm,-,N/A,,Mostly Cloudy,0,2012-11-19 06:51:00